www.pogodaiklimat.ru

Погода и климат >> Архив погоды >> Антарктида >> Neumayer Station


ПОГОДА в Neumayer Station

  • Прогноз погоды в Neumayer Station
  • Монитор погоды в Neumayer Station
  • Климат города

АРХИВ ПОГОДЫ в Neumayer Station

Время (UTC), дата Ветер
(напр.,м/с)
 
Видим.   Явления Облачность Т
(С)
Тd
(С)
f
(%)
Тe
(С)
Тes
(С)
Комфортность P
(гПа)
Po
(гПа)
Тmin
(С)
Tmax
(С)
R
(мм)
R24
(мм)
S
(см)
03 10.12 В 5 н/о н/о -8.4 -9.8 90 -16 -16 984.5 979.1
06 10.12 ЮВ 5 50 км 9/0 2000 м
[Ac trans Cs]
-7.4 -9.4 86 -15 -14 986.0 980.6
09 10.12 ЮВ 3 50 км 9/9 1000 м
[Sc]
-4.1 -6.0 87 -9 -8 987.3 981.9
12 10.12 В 4 50 км 10/0
[Cs]
-1.7 -6.2 71 -7 -1 988.4 983.0 -9.5 -1.7
15 10.12 ЮВ 3 50 км 10/0
[Cs]
-0.7 -6.1 67 -5 +1 989.8 984.4
18 10.12 ЮЗ 3 50 км 10/0
[Ac trans Cs]
-1.4 -3.2 88 -6 -4 991.0 985.6
21 10.12 ЮЗ 5 50 км 9/0
[Ac trans Cs]
-4.1 -6.4 84 -11 -11 992.5 987.1
00 11.12 ЮЗ 5 50 км 9/0
[Ac trans Cs]
-8.9 -10.9 85 -17 -17 993.2 987.8 -9.0 +0.1
03 11.12 ЮЗ 7 н/о н/о -10.2 -12.9 81 -19 -19 994.1 988.8
06 11.12 З 8 50 км 1/0
[Ci fib]
-7.8 -9.6 87 -17 -17 995.2 989.9
09 11.12 ЮЗ 15 1000 м метель ясно -6.9 -8.3 90 -19 -19 996.3 990.9
12 11.12 З 14 500 м метель ясно -5.9 -7.4 89 -17 -17 996.9 991.5 -11.2 -5.7
15 11.12 ЮЗ 15 1000 м метель 1/1 1000 м
[Sc]
-5.7 -7.3 88 -17 -17 998.2 992.8
18 11.12 З 12 4000 м сильный позёмок {метель} 1/1 1000 м
[Sc Cs]
-5.5 -7.4 86 -16 -16 999.3 993.9
21 11.12 З 7 50 км позёмок {метель} 1/1 1500 м
[Sc Ac As Cs]
-7.0 -8.9 86 -16 -16 1000.5 995.2
00 12.12 ЮЗ 11 20 км сильный позёмок {метель} 1/1 1500 м
[Sc Ac As Cc]
-8.9 -10.4 89 -20 -20 1000.0 994.6 -9.0 -5.3
03 12.12 ЮЗ 16 н/о н/о -8.2 -9.7 89 -21 -21 999.4 994.0
06 12.12 З 12 50 км сильный позёмок {метель} 9/9 600 м
[Sc]
-6.0 -8.1 85 -17 -17 999.6 994.2
09 12.12 З 10 50 км сильный позёмок {метель} ясно -5.5 -7.3 87 -15 -15 999.1 993.8
12 12.12 ЮЗ 10 20 км позёмок {метель} 1/0
[Cs]
-4.3 -7.1 81 -14 -13 998.0 992.6 -9.7 -4.3
15 12.12 З 9 50 км позёмок {метель} 1/0
[Cs]
-4.0 -7.2 78 -13 -12 997.3 992.0
18 12.12 З 7 50 км {метель} 4/0
[Cs]
-4.6 -8.5 74 -12 -11 996.2 990.8
21 12.12 З 3 50 км 5/1 1500 м
[Sc Cs]
-6.3 -9.3 79 -12 -11 995.0 989.7
00 13.12 В 4 50 км 10/9 600 м
[Sc]
-9.4 -11.1 87 -16 -16 993.7 988.3 -10.4 -3.9
03 13.12 В 9 н/о н/о -10.2 -11.8 88 -21 -21 991.3 986.0
06 13.12 В 13 1000 м метель 10/10 600 м
[Sc]
-8.5 -10.0 89 -20 -20 989.6 984.2
09 13.12 В 19 50 м сильная метель ?/? -6.8 -7.8 93 -20 -20 986.4 981.0
12 13.12 В 20 50 м сильная метель 10/10 300 м
[St]
-5.5 -6.3 94 -18 -18 984.8 979.4 -10.3 -5.4
15 13.12 В 20 50 м сильная метель 10/10 200 м
[St]
-4.4 -5.1 95 -17 -17 983.5 978.1
18 13.12 В 21 <50 м слабый снег {метель} туман 10/10 200 м
[Frnb]
-3.9 -4.3 97 -16 -16 983.3 977.9
21 13.12 В 20 <50 м слабый снег {метель} туман 10/10 100 м
[Frnb]
-3.8 -4.1 98 -16 -16 983.6 978.3
00 14.12 В 21 <50 м слабый снег {метель} туман 10/10 300 м
[Frnb]
-3.8 -4.1 98 -16 -16 985.0 979.7 -5.4 -3.5
03 14.12 В 21 н/о н/о -4.1 -4.4 98 -17 -17 985.7 980.3
06 14.12 В 21 <50 м слабый снег {метель} туман 10/10 100 м
[Frnb]
-4.0 -4.4 97 -17 -17 986.4 981.0
09 14.12 В 21 <50 м слабый снег {метель} туман ?/? -3.8 -4.2 97 -16 -16 987.4 982.0
12 14.12 В 22 <50 м сильная метель {снег} ?/? -4.0 -4.5 96 -17 -17 987.7 982.4 -4.2 -3.7
15 14.12 В 22 <50 м слабый снег {метель} туман ?/? -4.3 -4.8 96 -17 -17 987.4 982.0
18 14.12 В 21 <50 м сильная метель {снег} ?/? -4.3 -4.8 96 -17 -17 987.1 981.7
21 14.12 В 20 <50 м слабый снег {метель} туман ?/? -4.5 -5.0 96 -17 -17 986.8 981.4
00 15.12 В 19 <50 м слабый снег {метель} туман ?/? -4.8 -5.3 96 -17 -17 985.4 980.0 -4.9 -4.1
03 15.12 В 22 н/о н/о -5.6 -6.1 96 -19 -19 982.7 977.3
06 15.12 В 24 <50 м снег {метель} туман ?/? -5.5 -6.0 96 -19 -19 980.7 975.3
09 15.12 В 24 <50 м сильная метель {снег} ?/? -5.7 -6.3 96 -19 -19 979.1 973.7
12 15.12 В 24 <50 м снег {метель} туман ?/? -5.1 -5.6 96 -19 -19 977.4 972.0 -5.9 -4.9
15 15.12 В 25 <50 м сильная метель {снег} ?/? -4.7 -5.1 97 -18 -18 976.5 971.1
18 15.12 В 24 <50 м слабый снег {метель} туман ?/? -4.5 -4.9 97 -18 -18 976.0 970.6
21 15.12 В 24 <50 м слабый снег {метель} туман ?/? -4.4 -4.7 98 -18 -18 975.5 970.1
00 16.12 В 23 <50 м сильная метель {снег} ?/? -4.4 -4.7 98 -17 -17 975.4 970.1 -5.1 -4.4
03 16.12 В 26 н/о н/о -4.7 -5.0 98 -18 -18 973.7 968.3
06 16.12 В 24 <50 м снег {метель} туман ?/? -4.5 -4.8 98 -18 -18 972.9 967.6
09 16.12 В 23 <50 м снег {метель} туман ?/? -3.8 -4.1 98 -17 -17 972.2 966.8
12 16.12 В 21 <50 м слабый снег {метель} туман ?/? -2.6 -2.8 99 -15 -15 973.1 967.7 -4.7 -2.5
15 16.12 СВ 14 1000 м слабый снег {метель} туман 10/10 200 м
[St]
-1.7 -1.9 99 -12 -12 976.1 970.7
18 16.12 В 17 200 м метель {снег} 10/10 200 м
[St]
-1.9 -2.0 99 -13 -13 976.2 970.8
21 16.12 В 19 50 м слабый снег {метель} туман 10/10 100 м
[Frnb]
-2.0 -2.0 100 -13 -13 975.9 970.5

 

Местоположение метеостанции Neumayer Station (Антарктида): широта -70.66 долгота -8.25 высота над уровнем моря 50 м.

В архиве по умолчанию представлена погода в Neumayer Station за последнюю неделю. Архивные данные за месяц целиком и за предыдущие месяцы, начиная с января 2011 года, Вы можете получить, выбрав интересующий диапазон дат из раскрывающегося списка и нажав кнопку "Ввод!".

Внимание! Время в таблицах - всемирное. Для получения местного времени необходимо прибавить поправку, которая в Neumayer Station равна 0 ч.

Смотрите также архив погоды в соседних городах и на ближайших метеорологических станциях:

Погода в Soerasen (Антарктида) (102 км)
Погода в SANAE (Антарктида) (227 км)
Погода в Nordenskiold Base (Антарктида) (320 км)
Погода в Troll (Антарктида) (406 км)
Погода в Kohnen Ep9 (Антарктида) (552 км)
Погода в Maitri (Антарктида) (732 км)
Погода в Novolazarevskaja (Антарктида) (734 км)
Погода в Halley (Антарктида) (797 км)
Погода в Base Belgrano Ii (Антарктида) (1110 км)
Погода в Relay Station (Антарктида) (1713 км)

Пояснения к столбцам:

Ветер - указаны скорость ветра в м/с - средняя за 10 мин, порывы в срок и между сроками (в фигурных скобках) и направление, откуда дует ветер: С - северный, СВ - северо-восточный, В - восточный, ЮВ - юго-восточный, Ю - южный, ЮЗ - юго-западный, З - западный, СЗ - северо-западный.
Видимость - горизонтальная дальность видимости в метрах или километрах. При видимости от 1 до 10 км при отсутствии осадков обычно наблюдается дымка, при ухудшении видимости до 1 км и менее - туман. В сухую погоду видимость может ухудшаться дымом, пылью или мглою.
Явления - указаны атмосферные явления, наблюдавшиеся в срок или в последний час перед сроком; фигурными скобками обозначены явления, наблюдавшиеся между сроками (за 1-3 часа до срока); квадратными скобками обозначены град или гололедные отложения с указанием их диаметра в мм.
Облачность - указаны через наклонную черту общая и нижняя облачность в баллах и высота нижней границы облаков в метрах; квадратными скобками обозначены формы облаков: Ci - перистые, Cs - перисто-слоистые, Cc - перисто-кучевые, Ac - высококучевые, As - высокослоистые, Sc - слоисто-кучевые, Ns - слоисто-дождевые, Cu - кучевые, Cb - кучево-дождевые. Подробнее классификацию облаков см. в Атласе облаков (PDF).
T - Температура воздуха - температура, измеренная на высоте 2 м над землей.
Td - Температура точки росы - температура, при понижении до которой содержащийся в воздухе водяной пар достигнет насыщения.
f - Относительная влажность воздуха - влажноcть воздуха, измеренная на высоте 2 м над землей.
Te - Эффективная температура - температура, которую ощущает одетый по сезону человек в тени. Характеристика душности погоды. При расчете учитывается влияние влажности воздуха и скорости ветра на теплоощущения человека.
Tes - Эффективная температура на солнце - температура, которую ощущает человек, с поправкой на солнечный нагрев. Характеристика знойности погоды. Зависит от высоты солнца над горизонтом, облачности и скорости ветра. Ночью, в пасмурную погоду, а также при ветре 12 м/с и более поправка равна нулю.
P - Атмосферное давление - приведенное к уровню моря атмосферное давление.
Po - Атмосферное давление - измеренное на уровне метеостанции атмосферное давление.
Tmin - Минимальная температура - минимум температуры воздуха на высоте 2 м над землей.
Tmax - Максимальная температура - максимум температуры воздуха на высоте 2 м над землей.
R - Количество осадков - Количество выпавших осадков за период времени, мм. При наведении курсора мыши на число - период времени, за который выпало указанное количество осадков.
R24 - Количество осадков - Количество выпавших осадков за 24 часа, мм.
S - Снежный покров - Высота снежного покрова, см. При наведении курсора мыши на число - состояние снежного покрова и степень покрытия местности в баллах.